Regional Weather Roundup
Issued by NWS Charleston, SC

Current Version | Previous Version | Graphics & Text | Print | Product List | Glossary On
Versions: 1 2 3 4 5 6 7 8 9 10 11 12 13 14 15 16 17 18 19 20 21 22 23 24 25 26 27 28 29 30 31 32 33 34 35 36 37 38 39 40 41 42 43 44 45 46 47 48 49 50
000
ASUS42 KCHS 291028
RWRCHS

REGIONAL WEATHER ROUNDUP
NATIONAL WEATHER SERVICE CHARLESTON SC
600 AM EDT MON AUG 29 2016

NOTE: "FAIR" INDICATES FEW OR NO CLOUDS BELOW 12,000 FEET WITH NO
SIGNIFICANT WEATHER AND/OR OBSTRUCTIONS TO VISIBILITY.

NOT ALL STATIONS ARE QUALITY CONTROLLED. USE DATA WITH CAUTION...
ESPECIALLY DEWPOINT OBSERVATIONS.

SCZ027-030-031-034>040-042>050-291100-
...SOUTHEAST SOUTH CAROLINA...

CITY           SKY/WX    TMP DP  RH WIND       PRES   REMARKS
N CHARLESTON   CLOUDY    76  73  91 NE6       30.05R
WATERFRONT PRK   N/A     77  76  97 NE7       30.02R
MOUNT PLEASANT CLOUDY    75  75 100 CALM      30.05S FOG
JOHNS ISLAND   FAIR      75  75 100 N6        30.05R
PINOPOLIS        N/A     75  75 100 E8        29.98R
MONCKS CORNER  CLOUDY    73  72  94 E3        30.07R FOG
SUMMERVILLE    CLOUDY    73  73 100 CALM      30.07R
BEAUFORT MCAS  MOCLDY    75  74  96 N6        30.05R
BEAUFORT ARPT  PTSUNNY   77  73  88 N7        30.05R
HILTON HEAD IS NOT AVBL
WALTERBORO     CLOUDY    75  75 100 N3        30.08R
ALLENDALE      FAIR      73  73 100 CALM      30.07R

...SOUTHERN MIDLANDS AND PEE DEE...

CITY           SKY/WX    TMP DP  RH WIND       PRES   REMARKS
GEORGETOWN     CLOUDY    73  73 100 NE3       30.06S
KINGSTREE      CLOUDY    73  72  94 CALM      30.07S
ORANGEBURG     CLOUDY    75  72  90 E6        30.08R
BARNWELL       NOT AVBL
AIKEN          FAIR      73  68  83 N3        30.13R
MANNING        CLOUDY    72  72 100 N6        30.08R
COLUMBIA       CLEAR     78  70  76 NE5       30.08R
SUMTER         CLOUDY    75  72  89 NE8       30.06S
FLORENCE       CLOUDY    76  73  91 NE6       30.08S
MYRTLE BEACH   MOCLDY    75  66  73 N8        30.08S
N MYRTLE BEACH CLOUDY    75  74  96 NE9       30.06R

$$

GAZ063-065-086>088-099>101-113>116-118-119-134>141-150-291100-
...SOUTHEAST GEORGIA...

CITY           SKY/WX    TMP DP  RH WIND       PRES   REMARKS
SAVANNAH ARPT  PTCLDY    75  73  93 N6        30.05R
HUNTER AAF     PTCLDY    76  76 100 N3        30.02R
FORT STEWART   PTCLDY    74  73  94 N2        30.02R
STATESBORO     CLEAR     74  74  98 CALM      30.07R FOG
SYLVANIA       NOT AVBL
CLAXTON        FAIR      74  74 100 N3        30.06S FOG

...CSRA...CENTRAL AND FAR SOUTHEAST GEORGIA...

CITY           SKY/WX    TMP DP  RH WIND       PRES   REMARKS
THOMSON        CLOUDY    75  74  97 MISG      30.14R
AUGUSTA-BUSH   CLOUDY    75  72  90 N3        30.07S
AUGUSTA-DANIEL CLOUDY    79  71  76 N5        30.09S
SWAINSBORO     PTSUNNY   73  72  94 NE5       30.08S
VIDALIA        PTCLDY    73  73 100 NE6       30.07R
EASTMAN        FAIR      75  75 100 NE5       30.09S
HAZLEHURST     FAIR      75  75 100 CALM      30.04S
ALMA           PTCLDY    73  72  96 NE3       30.03S
WAYCROSS         N/A     75  75 100 CALM      30.03R
JESUP          FAIR      75  75 100 NE6       30.04R FOG
BAXLEY         MOCLDY    73  73 100 NE6       30.04S
BRUNSWICK      PTCLDY    73  73 100 CALM      30.02S
SAINT SIMONS   PTCLDY    82  75  79 E9        30.00S

$$

SCZ027-028-034-036>038-045-046-048>050-GAZ119-141-291100-
...LAKE AND SUPPLEMENTAL COASTAL OBSERVATIONS...

STATION/POSITION TIME  TEMP    WIND        PRES    WAVE   SWELL
                       AIR SEA DIR/SP/G            HT/PER HT/PER/DIR
                 (UTC) (F)     (DEG/KT/KT) (MB)    (FT/S) (FT/S/D)
WINYAH BAY       0945   76      10/  6     1017.0S
LAKE MURRAY      0900   78      30/  2/  5 1018.3F
ACE BASIN NERRS  0900   75      20/  1     1017.0S
FORT PULASKI     1000   80 85   20/  7/  9 1017.4R
SAPELO ISLAND    1000   81      60/  5     1016.0S

$$

ANZ835-935-AMZ111-154-330-350-352-354-370-450-454-472-291100-
...C-MAN AND BUOY OBSERVATIONS...

STATION/POSITION TIME  TEMP    WIND        PRES    WAVE   SWELL
                       AIR SEA DIR/SP/G            HT/PER HT/PER/DIR
                 (UTC) (F)     (DEG/KT/KT) (MB)    (FT/S) (FT/S/D)
BUOY 41004       0950   83 85   50/  6/  8 1016.3R   3/ 8   3/140/ 8
BUOY 41008       0950   83 85   80/ 12/ 14 1015.8R   4/ 5   2/130/ 8
FOLLY BEACH CMAN 1000   77     350/  8/ 10 1017.5R
CAPERS NEARSHORE 1008   81 84   50/ 10/ 16 1016.9R
FRIPP NEARSHORE  1008   81 86   50/ 14/ 17 1016.1R


STATION/POSITION TIME  TEMP    WIND        PRES    WAVE   SWELL
                       AIR SEA DIR/SP/G            HT/PER HT/PER/DIR
                 (UTC) (F)     (DEG/KT/KT) (MB)    (FT/S) (FT/S/D)
5E ST. MARYS GA  1001      85                N/A     4/17   2/ 90/17
FRYING PAN BUOY  1000   82 85   30/ 10/ 14 1016.8F
BUOY 41025       0950   83 84   60/ 10/ 14 1017.4F   6/ 9   5/100/ 9
CAPE LOOKOUT NC  1000   77      10/  7/  9 1017.5F
BUOY 41002       0950   81 84  290/ 12/ 14 1015.2S   7/ 8   7/ 80/ 8
BUOY 41010       NOT AVBL
ST AUGUSTINE FL  1000   82 84   80/  6/  8 1015.9R


$$




USA.gov is the U.S. government's official web portal to all federal, state and local government web resources and services.